SL-12 R/B(2)

Satellite information

Favourite Embed

Satellite Type and Status

ROCKET BODYIN ORBIT

Key statistics

Satellite SL-12 R/B(2) at a glance.

Uptime

13672

Days in orbit

Revolutions

≈ 2.1

Per day

Orbit

MEO

Medium Earth Orbit

Inclination

64.9

Latest

Satellite identification and parameters

Extended collection of information and parameters for SL-12 R/B(2).

Object identification

Identified? True

Debris? False

Object name: SL-12 R/B(2)

International designator: 1988-043F

Object number (NORAD): 19168

Object ID (CCSDS): 19168

Country: COMMONWEALTH OF INDEPENDENT STATES (CIS)

Current information (Y/N): Y

RCS size: LARGE

Orbital parameters

Period: 674.478 minutes

Inclination: 64.8567 deg

SMA: 25476.434 km

Apoapsis: 19130.996 km

Periapsis: 19065.602 km

RAAN: 79.5567 deg

Eccentricy: 0.00128343

Argument of periapsis: 219.8674 deg

Mean anomaly: 140.8128 deg

Mean motion: 2.13498492 rev/day

Mean motion (dot): -0.00000003 rev/day2

B* drag term: 0.0 1/REarth

Two-line elements (TLE)

Creation date: Oct. 22, 2025, 5:40 p.m.

Reference frame: TEME

Reference center: EARTH

Epoch: Oct. 21, 2025, 10:52 p.m. UTC

TLE line 0: 0 SL-12 R/B(2)

TLE line 1: 1 19168U 88043F 25294.95322358 -.00000003 00000-0 00000-0 0 9991

TLE line 2: 2 19168 64.8567 79.5567 0012834 219.8674 140.8128 2.13498492291689

Live tracking on map

Real-time ground track for satellite SL-12 R/B(2).

In-orbit conjunctions

A list of the most updated potential collisions computed for object SL-12 R/B(2).

Target Orbit TCA Probability of collision Miss distance Type
COSMOS 2394 (GLONASS) MEO 2024-08-11 00:27:44 TBA 3685.0 (m) PAYLOAD

Associated space launch

GLONASS navigation satellites

SL-12 R/B(2) was lifted into orbit during the mission ‘Proton | Uragan 26 to 28’, on board a Proton space rocket.

The launch took place on May 21, 1988, 5:57 p.m. from 200/39 (200L).

For more information about the launch, click the button.

Launch to space Proton | Uragan 26 to 28
Proton | Uragan 26 to 28

Agency: N/A

Status: Launch Successful

Launch date: May 21, 1988, 5:57 p.m. UTC

Rocket: Proton

Launch pad: 200/39 (200L)

Location: Baikonur Cosmodrome, Republic of Kazakhstan

...

Latest news about this satellite

There are no fresh news available about this satellite. Check back as we update our databases every day.


Newsletter sign-up

Weekly statistics, charts and insights to help you stay on top of the space industry.